ECHOSTAR 19

Last updated on Tue Sep 22 2026 00:03:14 GMT+0000 (Coordinated Universal Time)

1 41893U 16079A 26264.51196380 -.00000142 00000+0 00000+0 0 9997 2 41893 0.0182 155.4383 0001413 18.2650 273.9075 1.00270780 35666
UTC large
Height (km)
Speed (km/s)
/
Latitude / Longitude
Inclination (degrees)
Orbital Period (minutes)
Azimuth
Elevation
Range (km)
Doppler Factor

Next 0 passes for location: London (51.5072 / 0.1276)

No passes found over London.
ECHOSTAR 19